Location: Mahannah Oil Field
(37.4664°N, 96.6003°W)
Time: 08:36:17
(UTC+00:00)

Courier 1B - Pass Details

Date: 24 January 2021
Orbit: 962 x 1209 km, 28.3° (Epoch: 02 March)

Event Time Altitude Azimuth Distance (km) Brightness Sun altitude
Rises 06:02:26 0° 238° (WSW) 3,737 - -70.1°
Reaches altitude 10° 06:05:27 10° 228° (SW) 2,754 - -70.3°
Maximum altitude 06:11:10 31° 168° (SSE) 1,629 - -70.7°
Drops below altitude 10° 06:16:44 10° 108° (ESE) 2,688 - -71.1°
Sets 06:19:39 0° 99° (E) 3,633 - -71.2°
